Regional Weather Roundup
Issued by NWS

Home | Current Version | Previous Version | Text Only | Print | Product List | Glossary On
Versions: 1 2 3 4 5 6 7 8 9 10 11 12 13 14 15 16 17 18 19 20 21 22 23 24 25 26 27 28 29 30 31 32 33 34 35 36 37 38 39 40 41 42 43 44 45 46 47 48 49 50
000
ASUS43 KMKX 050600
RWRWI

WISCONSIN REGIONAL WEATHER ROUNDUP
NATIONAL WEATHER SERVICE MILWAUKEE/SULLIVAN WI
1200 AM CST MON DEC 05 2016

NOTE: "FAIR" INDICATES FEW OR NO CLOUDS BELOW 12,000 FEET WITH NO
SIGNIFICANT WEATHER AND/OR OBSTRUCTIONS TO VISIBILITY.

WIZ001-002-006>008-014>016-023>028-050700-
NORTHWEST WISCONSIN

CITY           SKY/WX    TMP DP  RH WIND       PRES   REMARKS
SUPERIOR ARPT  CLOUDY    34  31  90 W9        29.69R WCI  26
ASHLAND        CLOUDY    34  31  88 SW9       29.69R WCI  27
6HR MIN TEMP:  32; 6HR MAX TEMP:  34; 6HR PCP: TRACE;

HAYWARD        CLOUDY    33  30  88 SW6       29.71R WCI  28
6HR MIN TEMP:  32; 6HR MAX TEMP:  34; 6HR PCP: TRACE;

SIREN          CLOUDY    34  31  88 SW8       29.73S WCI  27
CUMBERLAND     CLOUDY    32  30  93 W8        29.74R WCI  25
RICE LAKE      CLOUDY    34  30  84 SW7       29.76S WCI  28
CHETEK         CLOUDY    34  31  88 W3        29.76R
LADYSMITH      CLOUDY    34  32  92 SW8       29.75R WCI  27
EAU CLAIRE     CLOUDY    35  31  85 SW8       29.78R WCI  29
6HR MIN TEMP:  33; 6HR MAX TEMP:  35; 6HR PCP:  0.01;

MENOMONIE      CLOUDY    36  32  85 SW9G17    29.79R WCI  29
NEW RICHMOND   CLOUDY    33  31  91 SW7       29.77S WCI  27
OSCEOLA        CLOUDY    34  31  87 SW7       29.79S WCI  28
$$

WIZ003>005-009-010-017-018-050700-
NORTH CENTRAL WISCONSIN

CITY           SKY/WX    TMP DP  RH WIND       PRES   REMARKS
MANITOWISH WTR CLOUDY    30  30 100 SW7       29.67S FOG     WCI  23
ARBOR VITAE    CLOUDY    32  31  95 SW8       29.68S FOG     WCI  25
WOODRUFF       CLOUDY    32  31  95 SW8       29.68S FOG     WCI  25
RHINELANDER    CLOUDY    32  31  96 SW8       29.71R FOG     WCI  25
6HR MIN TEMP:  29; 6HR MAX TEMP:  32; 6HR PCP:  0.01;

EAGLE RIVER    CLOUDY    30  30 100 SW7       29.68S FOG     WCI  23
LAND O LAKES   CLOUDY    31  31 100 SW3       29.69S FOG
PHILLIPS       CLOUDY    31  31 100 SW8       29.70R FOG     WCI  24
TOMAHAWK       CLOUDY    31  30  95 SW3       29.72R FOG
MEDFORD        CLOUDY    32  31  94 W12G17    29.74R WCI  23
MERRILL        CLOUDY    32  32 100 SW5       29.74R WCI  27
$$

WIZ029-030-035-036-043>047-050700-
CENTRAL WISCONSIN

CITY           SKY/WX    TMP DP  RH WIND       PRES   REMARKS
WAUSAU         CLOUDY    32  31  96 SW12      29.75R WCI  23
6HR MIN TEMP:  30; 6HR MAX TEMP:  32; 6HR PCP:  0.01;

MOSINEE        CLOUDY    32  32 100 SW9       29.77R WCI  24
MARSHFIELD     CLOUDY    33  31  92 W13       29.76S WCI  24
6HR MIN TEMP:  30; 6HR MAX TEMP:  33; 6HR PCP: TRACE;

STEVENS POINT  CLOUDY    31  31 100 SW9       29.78S WCI  23
WAUPACA        CLOUDY    33  31  93 CALM      29.80S
WAUTOMA        CLOUDY    31  30  96 SW6       29.83  WCI  25
6HR MIN TEMP:  30; 6HR MAX TEMP:  31; 6HR PCP: TRACE;

WISC RAPIDS    CLOUDY    33  32  96 W8        29.80S WCI  26
6HR MIN TEMP:  31; 6HR MAX TEMP:  33;

CAMP DOUGLAS   NOT AVBL
$$

WIZ011>013-019>022-031-037>040-048>050-050700-
NORTHEAST WISCONSIN

CITY           SKY/WX    TMP DP  RH WIND       PRES   REMARKS
ANTIGO         CLOUDY    30  30 100 SW8       29.73R FOG     WCI  22
SHAWANO        CLOUDY    33  31  93 SW5       29.78R WCI  28
OCONTO         MOCLDY    31  29  94 SW5       29.77F WCI  26
STURGEON BAY   CLOUDY    32  30  92 SW9       29.77F WCI  24
6HR MIN TEMP:  31; 6HR MAX TEMP:  32;

GREEN BAY      CLOUDY    34  32  92 SW9       29.80S WCI  27
6HR MIN TEMP:  33; 6HR MAX TEMP:  34; 6HR PCP:  0.05;

MANITOWOC      NOT AVBL
APPLETON       CLOUDY    32  32 100 SW12      29.79R WCI  23
CLINTONVILLE   CLOUDY    32  32 100 SW7       29.78F WCI  26
OSHKOSH        CLOUDY    32  29  88 SW10      29.81S WCI  24
6HR MIN TEMP:  31; 6HR MAX TEMP:  32; 6HR PCP:  0.01;

$$

WIZ032>034-041-042-053>061-050700-
SOUTHWEST WISCONSIN

CITY           SKY/WX    TMP DP  RH WIND       PRES   REMARKS
LA CROSSE      CLOUDY    36  33  89 S7        29.84S WCI  30
6HR MIN TEMP:  35; 6HR MAX TEMP:  37;

SPARTA         CLOUDY    33  32  96 W3        29.83F
VIROQUA        CLOUDY    32  32 100 SW14      29.83F WCI  22
BOSCOBEL       CLOUDY    34  31  88 SW9G17    29.91R WCI  27
6HR MIN TEMP:  34; 6HR MAX TEMP:  35;

PRAIRIE DU CHI CLOUDY    33  31  93 SW8       29.90R WCI  26
PLATTEVILLE    CLOUDY    32  32 100 SW12      29.92R WCI  23
$$

WIZ056-057-062-063-064-067-068-050700-
SOUTH CENTRAL WISCONSIN

CITY           SKY/WX    TMP DP  RH WIND       PRES   REMARKS
REEDSBURG      CLOUDY    32  32  98 SW8       29.86R WCI  25
BARABOO/DELLS  CLOUDY    32  30  92 W10       29.85R WCI  24
LONE ROCK      NOT AVBL
MINERAL POINT  CLOUDY    34  32  93 SW9       29.88S WCI  26
MADISON        CLOUDY    34  30  85 SW7       29.88R WCI  28
6HR MIN TEMP:  31; 6HR MAX TEMP:  34; 6HR PCP: TRACE;

MIDDLETON      CLOUDY    34  32  91 W9        29.88R WCI  27
WATERTOWN      CLOUDY    32  32 100 SW7       29.87R WCI  26
MONROE         CLOUDY    32  32 100 W16       29.90R WCI  21
JANESVILLE     CLOUDY    34  32  93 W9        29.91R WCI  26
$$

WIZ051-052-058>065-066-070>072-050700-
SOUTHEAST WISCONSIN

CITY           SKY/WX    TMP DP  RH WIND       PRES   REMARKS
MILWAUKEE      CLOUDY    34  29  82 W9        29.88R WCI  27
6HR MIN TEMP:  32; 6HR MAX TEMP:  34; 6HR PCP:  0.02;

WAUKESHA       CLOUDY    30  28  93 W7        29.88R FOG     WCI  23
MILWAUKEE/TIMM CLOUDY    32  28  86 W12       29.88R WCI  23
RACINE         CLOUDY    33  29  85 W12G21    29.90R WCI  24
6HR MIN TEMP:  30; 6HR MAX TEMP:  33; 6HR PCP:  0.02;

BURLINGTON     CLOUDY    32  31  96 W7        29.89S WCI  25
KENOSHA        CLOUDY    32  30  92 W17       29.89R FOG     WCI  21
6HR MIN TEMP:  27; 6HR MAX TEMP:  32; 6HR PCP:  0.03;

FOND DU LAC    CLOUDY    32  28  85 SW10      29.84R WCI  24
6HR MIN TEMP:  31; 6HR MAX TEMP:  32; 6HR PCP: TRACE;

SHEBOYGAN      CLOUDY    32  29  88 W14       29.83S WCI  22
6HR MIN TEMP:  31; 6HR MAX TEMP:  32; 6HR PCP:  0.02;

WEST BEND      CLOUDY    32  32 100 W7        29.84F WCI  26
JUNEAU         CLOUDY    32  30  94 SW9       29.87S WCI  24
$$

LSZ147-162-050700-
LAKE SUPERIOR

STATION/POSITION TIME  TEMP    WIND        PRES    WAVE
                       AIR SEA DIR/SP/G            HT/PER
                 (UTC) (F)     (DEG/KT/KT) (MB)    (FT/S)
DEVILS ISLAND    0500   36     220/ 15/ 19 1004.8F
PORT WING        0540   35     220/  6/  9 1005.1R
SAXON HARBOR     0530   35     200/  7/ 10 1005.1S
$$

LMZ867-665-643>646-050700-
LAKE MICHIGAN

STATION/POSITION TIME  TEMP    WIND        PRES    WAVE
                       AIR SEA DIR/SP/G            HT/PER
                 (UTC) (F)     (DEG/KT/KT) (MB)    (FT/S)
CHAMBERS ISLAND  0540   34     210/  6/ 15 1007.5F
NORTHPORT PIER   0540   34     250/  3/  7 1007.5F
SISTER BAY       0538   36     270/ 18/ 21   N/A
ALGOMA LAKESHORE 0521          260/  8/ 10   N/A
KEWAUNEE LAKESHO 0530   33     240/  7/ 10 1008.6S
SHEBOYGAN LAKESH 0500   33     240/ 11/ 13 1010.7R
PORT WASHINGTON  0540   33     250/  7/ 10 1012.2S
MILWAUKEE LAKESH 0530   33     280/ 13/ 16   N/A
KENOSHA   LAKESH 0500   32     250/ 10/ 17 1012.2
$$

TC  - TEMPERATURE IN CELSIUS
VSB - VISIBILITY IN STATUTE MILES
WCI - WIND CHILL INDEX
HX  - HEAT INDEX




USA.gov is the U.S. government's official web portal to all federal, state and local government web resources and services.